When you browse on this site, cookies collect data to enhance your experience and personalize the content and advertising you see.
Visit our Privacy Policy to learn more. By continuing to use the site, you agree to this use of cookies and data.
  • In Sweden
  • List of Countries
  • For 7 days
  • Water Temperature
  • Weather Map
  • Weather Widgets
  • user-avatar
    Login

    Hourly Weather Mexico City

    Today, 17 February, Monday

    Time Temperature Precipitation Wind Pressure Humidity
    00:00 +19°C° 0 mm 1 mps 584 mmHg 48%
    01:00 +18°C° 0 mm 1 mps 583 mmHg 50%
    02:00 +15°C° 0 mm 0 mps 583 mmHg 53%
    03:00 +15°C° 0 mm 0 mps 583 mmHg 53%
    04:00 +15°C° 0 mm 0 mps 583 mmHg 54%
    05:00 +14°C° 0 mm 0 mps 582 mmHg 55%
    06:00 +15°C° 0 mm 0 mps 583 mmHg 50%
    07:00 +16°C° 0 mm 0 mps 584 mmHg 45%
    08:00 +18°C° 0 mm 0 mps 585 mmHg 40%
    09:00 +21°C° 0 mm 1 mps 585 mmHg 31%
    10:00 +23°C° 0 mm 1 mps 586 mmHg 23%
    11:00 +25°C° 0 mm 2 mps 586 mmHg 15%
    12:00 +26°C° 0 mm 2 mps 586 mmHg 13%
    13:00 +27°C° 0 mm 2 mps 585 mmHg 11%
    14:00 +28°C° 0 mm 1 mps 585 mmHg 9%
    15:00 +27°C° 0 mm 1 mps 585 mmHg 11%
    16:00 +27°C° 0 mm 1 mps 585 mmHg 13%
    17:00 +26°C° 0 mm 1 mps 585 mmHg 14%
    18:00 +25°C° 0 mm 1 mps 584 mmHg 22%
    19:00 +23°C° 0 mm 1 mps 584 mmHg 29%
    20:00 +21°C° 0 mm 1 mps 584 mmHg 37%
    21:00 +21°C° 0 mm 1 mps 584 mmHg 38%
    22:00 +20°C° 0 mm 1 mps 584 mmHg 38%
    23:00 +18°C° 0 mm 0 mps 584 mmHg 39%

    Tomorrow, 18 February, Tuesday

    Time Temperature Precipitation Wind Pressure Humidity
    00:00 +17°C° 0 mm 0 mps 583 mmHg 41%
    01:00 +17°C° 0 mm 0 mps 583 mmHg 42%
    02:00 +16°C° 0 mm 0 mps 583 mmHg 43%
    03:00 +16°C° 0 mm 0 mps 583 mmHg 43%
    04:00 +15°C° 0 mm 0 mps 583 mmHg 43%
    05:00 +15°C° 0 mm 0 mps 583 mmHg 43%
    06:00 +16°C° 0 mm 0 mps 583 mmHg 39%
    07:00 +17°C° 0 mm 0 mps 584 mmHg 36%
    08:00 +19°C° 0 mm 0 mps 585 mmHg 32%
    09:00 +21°C° 0 mm 0 mps 586 mmHg 26%
    10:00 +24°C° 0 mm 1 mps 586 mmHg 20%
    11:00 +26°C° 0 mm 2 mps 587 mmHg 15%
    12:00 +27°C° 0 mm 2 mps 586 mmHg 13%
    13:00 +28°C° 0 mm 2 mps 586 mmHg 11%
    14:00 +29°C° 0 mm 2 mps 585 mmHg 10%
    15:00 +28°C° 0 mm 2 mps 585 mmHg 10%
    16:00 +28°C° 0 mm 2 mps 585 mmHg 11%
    17:00 +27°C° 0 mm 2 mps 585 mmHg 12%
    18:00 +26°C° 0 mm 2 mps 585 mmHg 18%
    19:00 +24°C° 0 mm 2 mps 586 mmHg 24%
    20:00 +21°C° 0 mm 2 mps 586 mmHg 29%
    21:00 +21°C° 0 mm 2 mps 586 mmHg 31%
    22:00 +21°C° 0 mm 1 mps 586 mmHg 32%
    23:00 +20°C° 0 mm 1 mps 586 mmHg 34%

    Day after tomorrow, 19 February, Wednesday

    Time Temperature Precipitation Wind Pressure Humidity
    00:00 +20°C° 0 mm 1 mps 585 mmHg 34%
    01:00 +19°C° 0 mm 1 mps 585 mmHg 35%
    02:00 +19°C° 0 mm 1 mps 585 mmHg 36%
    03:00 +18°C° 0 mm 1 mps 585 mmHg 37%
    04:00 +18°C° 0 mm 1 mps 585 mmHg 37%
    05:00 +16°C° 0 mm 1 mps 585 mmHg 37%
    06:00 +18°C° 0 mm 1 mps 585 mmHg 33%
    07:00 +19°C° 0 mm 1 mps 586 mmHg 30%
    08:00 +20°C° 0 mm 1 mps 587 mmHg 26%
    09:00 +22°C° 0 mm 1 mps 588 mmHg 22%
    10:00 +23°C° 0 mm 1 mps 588 mmHg 17%
    11:00 +25°C° 0 mm 2 mps 588 mmHg 13%
    12:00 +26°C° 0 mm 2 mps 588 mmHg 12%
    13:00 +27°C° 0 mm 2 mps 588 mmHg 11%
    14:00 +28°C° 0 mm 2 mps 587 mmHg 10%
    15:00 +27°C° 0 mm 2 mps 587 mmHg 13%
    16:00 +26°C° 0 mm 2 mps 587 mmHg 17%
    17:00 +26°C° 0 mm 3 mps 587 mmHg 20%
    18:00 +24°C° 0 mm 2 mps 587 mmHg 29%
    19:00 +21°C° 0 mm 2 mps 587 mmHg 37%
    20:00 +19°C° 0 mm 2 mps 586 mmHg 46%
    21:00 +19°C° 0 mm 2 mps 586 mmHg 50%
    22:00 +18°C° 0 mm 2 mps 586 mmHg 54%
    23:00 +18°C° 0 mm 1 mps 586 mmHg 58%

    20 February, Thursday

    Time Temperature Precipitation Wind Pressure Humidity
    00:00 +18°C° 0 mm 1 mps 586 mmHg 61%
    01:00 +16°C° 0 mm 1 mps 585 mmHg 65%
    02:00 +16°C° 0 mm 1 mps 585 mmHg 68%
    03:00 +15°C° 0 mm 1 mps 585 mmHg 70%
    04:00 +15°C° 0 mm 1 mps 585 mmHg 71%
    05:00 +15°C° 0 mm 1 mps 585 mmHg 72%
    06:00 +15°C° 0 mm 1 mps 585 mmHg 69%
    07:00 +16°C° 0 mm 1 mps 586 mmHg 65%
    08:00 +18°C° 0 mm 1 mps 587 mmHg 62%
    09:00 +20°C° 0 mm 1 mps 587 mmHg 48%
    10:00 +21°C° 0 mm 2 mps 588 mmHg 35%
    11:00 +24°C° 0 mm 2 mps 588 mmHg 22%
    12:00 +25°C° 0 mm 3 mps 588 mmHg 20%
    13:00 +26°C° 0 mm 3 mps 588 mmHg 18%
    14:00 +27°C° 0 mm 3 mps 587 mmHg 15%
    15:00 +26°C° 0 mm 3 mps 587 mmHg 18%
    16:00 +26°C° 0 mm 3 mps 587 mmHg 21%
    17:00 +25°C° 0 mm 4 mps 587 mmHg 24%
    18:00 +22°C° 0 mm 4 mps 587 mmHg 35%
    19:00 +20°C° 0 mm 4 mps 587 mmHg 46%
    20:00 +18°C° 0 mm 4 mps 587 mmHg 57%
    21:00 +17°C° 0 mm 4 mps 587 mmHg 61%
    22:00 +17°C° 0 mm 4 mps 587 mmHg 65%
    23:00 +15°C° 0 mm 4 mps 587 mmHg 68%

    21 February, Friday

    Time Temperature Precipitation Wind Pressure Humidity
    06:00 +15°C° 0 mm 2 mps 587 mmHg 72%
    07:00 +14°C° 0 mm 3 mps 588 mmHg 73%
    08:00 +16°C° 0 mm 3 mps 588 mmHg 73%
    09:00 +16°C° 0.1 mm 3 mps 588 mmHg 70%
    10:00 +17°C° 0.1 mm 4 mps 588 mmHg 67%
    11:00 +18°C° 0.1 mm 4 mps 589 mmHg 64%
    12:00 +18°C° 0.1 mm 4 mps 588 mmHg 59%
    13:00 +19°C° 0.1 mm 5 mps 588 mmHg 53%
    14:00 +20°C° 0.1 mm 5 mps 588 mmHg 48%
    15:00 +19°C° 0 mm 5 mps 588 mmHg 49%
    16:00 +19°C° 0 mm 4 mps 588 mmHg 51%
    17:00 +18°C° 0 mm 4 mps 588 mmHg 52%
    18:00 +17°C° 0 mm 4 mps 588 mmHg 56%
    19:00 +17°C° 0 mm 4 mps 588 mmHg 60%
    20:00 +15°C° 0 mm 4 mps 588 mmHg 65%
    21:00 +14°C° 0 mm 3 mps 588 mmHg 65%
    22:00 +14°C° 0 mm 3 mps 588 mmHg 66%
    23:00 +13°C° 0 mm 3 mps 588 mmHg 67%

    22 February, Saturday

    Time Temperature Precipitation Wind Pressure Humidity
    00:00 +14°C° 0 mm 2 mps 587 mmHg 67%
    01:00 +14°C° 0 mm 2 mps 587 mmHg 68%
    02:00 +14°C° 0 mm 2 mps 586 mmHg 68%
    03:00 +13°C° 0 mm 2 mps 586 mmHg 69%
    04:00 +13°C° 0 mm 1 mps 586 mmHg 71%
    05:00 +13°C° 0 mm 1 mps 586 mmHg 73%
    06:00 +13°C° 0 mm 1 mps 587 mmHg 69%
    07:00 +14°C° 0 mm 1 mps 587 mmHg 65%
    08:00 +15°C° 0 mm 1 mps 588 mmHg 60%
    09:00 +18°C° 0 mm 1 mps 588 mmHg 53%
    10:00 +20°C° 0 mm 1 mps 589 mmHg 46%
    11:00 +22°C° 0 mm 1 mps 589 mmHg 39%
    12:00 +23°C° 0 mm 1 mps 589 mmHg 36%
    13:00 +24°C° 0 mm 1 mps 588 mmHg 34%
    14:00 +25°C° 0 mm 1 mps 588 mmHg 31%
    15:00 +24°C° 0 mm 2 mps 588 mmHg 33%
    16:00 +24°C° 0 mm 2 mps 587 mmHg 35%
    17:00 +24°C° 0 mm 2 mps 587 mmHg 37%
    18:00 +23°C° 0 mm 2 mps 587 mmHg 41%
    19:00 +21°C° 0 mm 2 mps 587 mmHg 46%
    20:00 +20°C° 0 mm 2 mps 587 mmHg 50%
    21:00 +19°C° 0 mm 2 mps 587 mmHg 51%
    22:00 +20°C° 0 mm 1 mps 587 mmHg 52%
    23:00 +20°C° 0 mm 1 mps 587 mmHg 53%
    Show more